Probability
0 0 0 0 0 0 0 0 0 0 0 0 1 2 4 7 12 17 22 28 34 35 30 24 24 25 26 28 29 28 29 30 27 24 23 21 17 14 14 13 11 9 8 8
0 0 0 0 0 0 0 0 0 0 0 0 0 1 3 6 9 13 20 26 30 31 27 22 22 23 24 25 26 27 28 27 24 21 19 17 16 15 14 13 12 10 9 9
0 0 0 0 0 0 0 0 0 0 0 0 0 1 2 3 5 10 16 22 25 26 23 19 19 20 22 24 26 28 28 25 20 16 13 12 14 15 14 13 12 9 8 7
0 0 0 0 0 0 0 0 0 0 0 0 0 0 1 2 5 8 13 18 22 24 21 19 17 17 20 25 29 31 28 22 18 14 10 9 12 14 13 11 9 7 5 4
0 0 0 0 0 0 0 0 0 0 0 0 0 0 1 3 5 8 11 16 20 22 22 21 19 16 18 24 31 32 26 19 16 13 10 10 12 12 11 9 8 6 4 2
0 0 0 0 0 0 0 0 0 0 0 0 0 0 1 2 3 5 7 10 14 18 20 19 17 17 18 22 27 27 20 16 14 11 9 9 11 11 9 8 7 5 3 1
0 0 0 0 0 0 0 0 0 0 0 0 0 1 2 2 2 2 3 6 10 14 16 14 14 16 17 19 21 19 15 12 9 8 7 6 6 7 7 8 7 5 2 1
0 0 0 0 0 0 0 0 0 0 0 0 0 2 4 3 1 0 1 4 8 11 12 12 13 15 16 15 13 12 10 8 6 5 4 2 2 3 4 5 5 5 2 1
0 0 0 0 0 0 0 0 0 0 0 0 1 3 4 3 1 0 0 3 7 9 8 10 13 15 15 11 8 7 6 5 4 4 2 1 1 2 2 2 3 3 2 1
0 0 0 0 0 0 0 0 0 0 0 0 0 2 4 3 1 0 0 3 6 7 7 8 12 14 13 9 5 4 4 4 4 3 3 1 1 1 1 1 1 1 1 0
0 0 0 0 0 0 0 0 0 0 0 0 0 1 3 3 1 1 1 3 6 7 7 9 12 12 10 7 5 3 2 3 2 2 3 2 1 0 1 1 2 1 0 0
0 0 0 0 0 0 0 0 0 0 0 0 0 0 1 1 1 1 2 3 5 7 9 11 13 11 7 5 4 3 2 2 1 1 2 2 1 0 0 1 2 1 0 0
0 0 0 0 0 0 0 0 0 0 0 0 0 0 0 0 1 3 4 4 5 7 9 11 12 9 5 4 3 2 2 2 1 0 1 1 0 0 0 0 0 0 0 0
0 0 0 0 0 0 0 0 0 0 0 0 0 0 0 0 1 4 5 4 5 7 9 10 10 7 4 3 2 2 3 3 1 0 0 0 0 0 0 0 0 0 0 0
0 0 0 0 0 0 0 0 0 0 0 0 0 0 0 0 2 5 6 5 5 6 7 7 7 5 4 3 3 4 5 3 1 0 0 0 1 1 1 0 0 0 0 0
0 0 0 0 0 0 0 0 0 0 0 0 0 0 0 0 2 4 4 3 3 3 4 4 4 3 2 2 3 4 4 2 0 0 0 0 1 2 1 0 0 0 0 0
0 0 0 0 0 0 0 0 0 0 0 0 0 0 0 1 2 4 4 2 1 1 1 1 1 2 1 1 2 3 2 0 0 0 0 0 1 1 1 0 0 0 0 0
0 0 0 0 0 0 0 0 0 0 0 0 0 0 0 1 3 4 4 2 0 0 1 1 1 1 0 1 2 2 1 0 0 0 0 0 0 0 0 0 0 0 0 0
0 1 2 1 0 0 0 0 0 0 0 0 0 0 0 1 2 3 3 2 1 1 2 3 3 1 0 0 1 1 0 0 0 0 0 0 0 0 0 0 0 0 0 0
1 3 4 3 1 0 0 0 0 0 0 0 0 0 0 0 0 1 1 2 3 3 5 5 4 1 0 0 0 0 0 0 0 0 0 0 0 0 0 0 0 0 0 0
2 3 3 3 2 1 0 0 0 0 0 0 0 0 0 0 0 0 0 1 2 4 5 5 3 1 0 0 0 0 0 0 0 0 0 0 0 0 0 0 0 0 0 0
2 1 1 2 2 1 1 1 1 0 0 0 0 0 0 0 0 0 0 0 1 1 2 2 1 0 0 0 0 0 0 0 0 0 0 0 0 0 0 0 0 0 0 0
1 1 1 2 3 3 2 1 0 0 0 0 0 0 0 0 0 0 0 0 0 0 0 0 0 0 0 0 0 0 0 0 0 0 0 0 0 0 0 0 0 0 0 0
0 1 2 2 2 2 2 1 0 0 0 0 0 0 0 0 0 0 0 0 0 0 0 0 0 0 0 0 0 0 0 0 0 0 0 0 0 0 0 0 0 0 0 0
0 0 1 1 1 1 1 0 0 0 0 0 0 0 0 0 0 0 0 0 0 0 0 0 0 0 0 0 0 0 0 0 0 0 0 0 0 0 0 0 0 0 0 0
0 0 0 0 0 0 0 0 0 0 0 0 0 0 0 0 0 0 0 0 0 0 0 0 0 0 0 0 0 0 0 0 0 0 0 0 0 0 0 0 0 0 0 0
Wind_Speed
5 8 6 4 4 2 3 5 5 3 3 6 7 6 6 7 8 8 8 8 7 6 6 5 5 4 4 4 5 5 5 4 4 3 2 2 2 1 1 1 2 1 1 1
8 6 2 2 3 5 6 7 5 4 3 4 5 6 5 7 8 7 8 8 7 7 6 5 4 4 4 4 5 5 5 4 3 2 1 1 1 1 1 1 2 1 1 1
4 3 2 4 6 7 7 7 5 4 5 5 6 8 8 7 6 6 6 6 7 7 6 6 5 5 5 5 5 4 4 4 3 3 2 2 2 2 2 2 2 2 2 2
3 2 4 6 6 6 6 4 5 6 8 7 8 7 7 8 7 7 7 6 6 6 6 5 5 5 5 4 4 4 4 4 3 3 2 2 2 1 1 1 1 1 1 2
2 3 5 6 3 5 2 2 5 7 9 8 8 9 4 8 7 6 6 6 5 5 5 5 5 5 5 5 5 4 4 4 3 3 2 2 1 1 1 1 2 1 2 2
2 2 3 2 1 2 3 5 5 8 9 10 6 8 4 4 4 4 4 5 5 4 5 5 5 4 4 5 5 5 5 4 3 3 2 1 1 2 2 1 1 1 1 1
5 5 4 4 5 7 7 8 7 8 8 6 3 7 1 3 1 1 3 3 4 5 5 5 5 5 5 5 5 4 5 4 3 3 2 2 1 2 2 1 1 0 0 1
5 5 5 4 6 5 8 10 9 8 7 4 5 5 2 4 3 2 2 3 5 5 5 5 5 5 5 5 5 4 4 4 4 3 3 2 1 1 1 1 0 0 1 2
4 2 4 2 3 7 7 8 7 10 10 9 4 3 4 4 4 4 3 4 5 5 5 5 5 5 5 5 5 4 4 4 3 3 3 2 1 1 2 1 0 1 1 1
4 4 3 4 5 4 6 5 5 8 8 9 6 5 3 6 5 5 4 4 5 5 5 5 5 5 5 4 4 3 3 3 3 2 2 2 1 1 1 1 2 2 2 2
5 6 4 5 5 4 5 6 7 6 7 8 8 2 4 3 4 4 4 5 5 4 5 6 5 5 5 5 4 3 3 3 3 3 2 2 1 1 1 1 2 1 2 2
4 6 5 4 0 3 5 6 7 7 7 7 8 2 6 3 4 4 5 5 5 5 5 6 6 5 5 4 4 3 3 3 3 2 2 2 2 2 1 2 1 1 1 1
3 5 6 5 6 5 5 5 6 6 6 7 8 1 6 5 5 5 5 5 5 5 5 6 6 5 4 4 3 3 2 2 2 2 2 2 1 1 2 2 1 1 1 1
4 5 7 7 4 3 4 4 6 8 7 7 6 3 4 4 5 5 5 5 5 5 5 5 5 4 4 3 2 2 2 2 2 2 2 2 1 1 1 1 1 1 1 1
4 5 4 4 3 3 4 4 5 6 8 8 5 4 1 3 4 5 5 5 5 5 5 5 5 4 3 3 2 2 2 2 3 2 2 2 1 2 1 1 1 1 1 1
3 5 5 5 4 4 5 5 5 5 6 5 5 2 4 5 5 6 5 5 4 5 5 5 5 4 3 3 2 2 2 2 2 2 2 2 2 1 1 1 1 1 1 2
4 5 6 6 4 7 6 5 5 5 4 5 5 1 5 5 5 5 5 5 5 5 5 5 5 4 3 3 2 2 2 2 2 2 2 2 2 1 1 0 1 1 1 1
5 6 5 5 6 7 0 1 3 4 3 2 1 3 4 4 4 4 4 5 5 4 4 5 4 4 3 3 3 2 2 2 2 2 2 2 1 1 1 1 1 1 1 1
6 6 5 5 6 6 4 4 5 5 3 2 3 5 6 7 6 5 4 4 4 4 4 4 4 4 4 3 3 3 2 2 2 2 2 2 2 2 1 1 1 1 1 1
6 7 7 6 7 5 1 4 3 5 4 5 6 7 8 7 4 5 6 5 5 5 5 4 4 4 4 3 3 3 3 2 2 2 2 2 2 2 2 2 1 1 1 1
8 8 9 8 7 3 3 5 6 5 3 7 7 8 8 4 4 8 8 7 6 6 6 5 5 4 4 4 3 3 2 2 2 2 2 2 1 1 1 1 1 1 1 2
7 6 7 7 7 2 6 6 3 3 6 6 7 7 7 7 8 9 9 8 7 7 7 6 5 4 4 3 3 3 2 2 2 2 2 2 1 0 1 0 1 1 2 2
6 4 3 2 1 4 4 3 3 3 5 6 7 8 9 9 9 9 9 8 8 7 7 6 5 5 4 3 3 3 3 2 2 3 2 2 1 0 0 1 1 2 2 2
4 3 3 3 3 4 5 5 5 5 6 7 8 9 9 9 10 10 9 8 8 7 6 5 5 5 4 3 3 2 2 2 2 2 2 2 2 1 1 1 2 2 2 2
2 4 4 4 4 5 6 6 7 7 8 9 9 9 9 10 10 10 9 8 7 6 5 5 4 4 4 3 3 3 3 2 2 2 2 2 1 1 1 1 2 3 3 4
6 6 6 3 6 6 7 8 9 10 10 10 10 10 9 9 10 10 9 7 7 6 5 5 4 4 4 3 3 2 3 3 2 2 2 1 1 1 2 1 1 1 2 2
Wind_Direction
198 218 202 186 242 278 219 218 205 162 145 218 215 204 182 187 200 200 196 191 191 183 167 163 165 161 163 165 163 164 162 157 164 162 174 167 153 143 138 113 92 84 56 31
204 203 153 182 206 219 217 215 198 161 153 234 215 217 201 199 208 208 205 200 194 182 170 168 169 170 179 180 173 171 170 160 168 151 154 132 128 146 116 89 96 74 55 24
240 82 132 203 197 209 217 231 219 195 170 206 220 215 200 192 202 206 210 205 196 188 183 174 179 187 188 186 182 178 167 158 163 157 168 148 160 180 163 149 115 70 55 51
226 156 200 217 210 229 222 212 224 208 220 212 222 249 188 185 194 205 208 203 198 188 185 182 178 180 185 180 173 166 157 150 150 161 172 183 202 198 141 138 95 89 64 43
194 196 225 232 232 249 283 172 219 226 245 254 224 256 189 177 203 208 209 203 199 188 182 180 177 176 177 171 164 154 148 141 140 148 157 201 209 163 140 147 127 140 92 62
238 194 250 261 205 219 166 188 208 229 240 244 240 260 241 182 209 202 197 199 195 186 174 166 160 160 161 161 156 149 146 135 137 148 150 157 145 137 138 154 143 169 103 72
198 186 174 189 190 182 214 228 231 227 231 246 182 251 308 72 89 191 194 188 177 168 159 155 152 154 152 152 152 152 144 133 127 124 116 127 147 167 164 177 147 322 49 48
235 200 175 206 247 241 226 249 267 276 274 264 196 248 91 94 108 138 161 144 137 140 138 138 135 136 135 137 140 142 137 125 122 113 105 117 145 173 111 102 354 18 12 34
262 244 132 181 250 259 237 242 283 280 278 277 249 188 155 145 142 140 139 136 135 133 132 127 120 117 120 124 122 126 127 122 121 115 122 128 123 83 86 126 188 69 51 42
274 265 207 171 204 212 275 268 245 260 276 275 263 242 216 172 171 158 148 139 130 130 127 122 114 107 101 104 106 109 125 133 135 137 135 119 121 121 126 129 68 51 38 25
258 255 225 210 240 250 216 226 253 268 278 281 282 298 57 147 165 164 147 135 134 133 133 129 122 116 112 113 113 120 126 130 142 142 134 119 108 102 96 82 80 67 46 23
240 267 260 249 290 298 271 265 253 262 267 268 282 332 82 97 130 141 137 131 132 133 134 133 129 126 124 120 119 127 129 137 149 138 129 113 102 94 82 71 61 72 60 22
211 245 252 219 191 200 231 241 255 263 273 271 272 236 110 122 127 131 131 131 133 138 136 136 134 131 128 123 129 128 139 141 139 133 126 110 105 97 80 56 29 38 59 40
256 258 273 285 310 301 255 247 245 255 263 271 276 273 153 147 143 138 137 136 140 141 142 140 137 134 127 124 126 133 136 143 142 127 113 103 93 96 84 61 36 28 28 23
245 252 256 277 286 279 272 267 250 254 276 285 295 292 58 135 145 140 140 139 142 145 144 145 148 141 132 127 139 140 133 140 145 140 124 99 78 79 80 67 47 33 15 8
226 251 246 246 231 245 260 259 252 257 266 271 272 276 79 112 134 143 149 151 159 160 152 150 150 150 149 150 149 141 136 140 143 139 130 101 87 80 56 48 37 20 19 10
215 227 245 250 239 250 246 247 246 245 259 274 282 60 128 142 153 154 155 160 160 157 155 153 153 152 155 158 155 148 144 146 152 142 130 111 109 106 89 60 27 11 17 19
232 243 251 254 246 252 327 87 246 245 255 281 322 120 141 132 128 129 148 156 156 154 151 149 149 148 150 151 153 155 151 158 154 139 122 109 115 98 87 88 50 19 12 6
232 242 253 256 257 260 208 196 218 235 232 206 180 148 140 132 142 137 137 147 147 146 144 141 142 139 140 144 148 145 141 137 140 124 98 84 76 77 76 57 37 21 356 342
201 230 247 248 262 264 149 138 177 239 219 160 170 161 156 176 203 129 133 136 130 129 130 135 138 134 139 146 152 151 144 145 143 123 106 94 77 65 57 43 0 351 331 315
198 212 233 245 252 255 103 136 187 239 83 138 164 164 167 177 54 106 129 130 130 131 133 137 138 138 138 146 154 151 148 145 138 129 119 107 94 91 78 40 337 312 304 325
229 222 221 235 244 204 132 170 221 54 101 139 152 153 146 117 112 123 130 132 135 135 136 140 140 134 136 150 159 153 141 129 135 134 130 122 127 161 115 168 297 307 306 285
244 271 272 274 2 85 142 135 94 114 131 135 144 143 141 137 135 133 133 135 138 139 137 143 144 139 143 157 167 154 136 143 146 148 145 145 144 140 242 258 266 278 278 289
197 228 230 210 172 158 156 152 142 135 129 130 135 142 146 143 141 140 138 139 140 141 144 151 152 149 147 154 159 149 149 154 154 153 157 177 189 196 183 278 297 316 328 326
246 200 210 207 173 159 168 165 152 140 135 133 134 140 143 143 144 142 140 142 144 147 151 154 156 155 148 147 144 146 149 159 159 163 176 194 214 227 258 291 336 325 351 350
222 224 233 225 180 181 163 163 157 150 147 144 143 141 142 144 145 144 142 144 148 151 153 156 160 160 153 151 148 154 166 173 179 190 207 225 234 253 271 263 237 274 274 240